Tracking 18795 objects as of 23-August-2017
HD Live streaming from Space Station
objects crossing your sky now

ARIANE 44L R/B

Track ARIANE 44L R/B now!


NORAD ID: 26696
Int'l Code: 2001-005C
Perigee: 291.3 km
Apogee: 32,176.4 km
Inclination: 6.9 °
Period: 563.7 minutes
Semi major axis: 22604 km
RCS: 23.3181 m2 (large)
Launch date: February 7, 2001
Source: France (FR)
Launch site: FRENCH GUIANA (FRGUI)

Note: This is a ROCKET BODY
Your satellite tracking list
Your tracking list is empty





NASA's NSSDC Master Catalog

Two Line Element Set (TLE):
1 26696U 01005C   17234.88497266 +.00003397 +00000-0 +16302-2 0  9998
2 26696 006.9431 183.6486 7052725 329.7450 003.7694 02.55446728144863
Source of the keplerian elements: AFSPC